Weather History for KSPG - March, 2013

Change the Weather History Date:

Thursday, March 7, 2013

  Actual Average (KTPA) Record (KTPA)
Temperature  
Mean Temperature 56 °F 66 °F  
Max Temperature 63 °F 75 °F 86 °F (1964)
Min Temperature 48 °F 57 °F 34 °F (1901)
Degree Days  
Heating Degree Days 10 2  
Month to date heating degree days 20  
Since 1 July heating degree days 491  
Cooling Degree Days 0 4  
Month to date cooling degree days 22  
Year to date cooling degree days 135  
Growing Degree Days 6 (Base 50)    
Moisture  
Dew Point 39 °F    
Average Humidity 58    
Maximum Humidity 75    
Minimum Humidity 37    
Precipitation  
Precipitation 0.00 in 0.10 in 2.19 in (1983)
Month to date precipitation 0.67  
Year to date precipitation 5.71  
Sea Level Pressure  
Sea Level Pressure 30.19 in    
Wind  
Wind Speed 11 mph (NNE)    
Max Wind Speed 16 mph    
Max Gust Speed -    
Visibility 10 miles    
Events      
T = Trace of Precipitation, MM = Missing Value Source: NWS Daily Summary

Daily Weather History Graph

Daily Weather History Graph

Search for Another Location

Airport or City:

Trip Planner

Search our weather history database for the weather conditions in past years. The results will help you decide how hot, cold, wet, or windy it might be!

Date:

Astronomy

Mar. 07, 2013 Rise Set
Actual Time 6:48 AM EST 6:34 PM EST
Civil Twilight 6:25 AM EST 6:58 PM EST
Nautical Twilight 5:57 AM EST 7:25 PM EST
Astronomical Twilight 5:30 AM EST 7:52 PM EST
Moon 3:28 AM EST (3/7) 2:38 PM EST (3/7)
Length of Visible Light 12h 33m
Length of Day
11h 46m
Waning Crescent, 20% of the Moon is Illuminated
Mar 7
Waning Crescent
Mar 11
New
Mar 19
First Quarter
Mar 27
Full
Apr 3
Last Quarter

Hourly Weather History & Observations

Time (EST) Temp. Dew Point Humidity Pressure Visibility Wind Dir Wind Speed Gust Speed Precip Events Conditions
12:53 AM 55.0 °F 39.9 °F 57% 30.15 in 10.0 mi NNE 12.7 mph - N/A   Clear
1:53 AM 54.0 °F 42.1 °F 64% 30.16 in 10.0 mi NNE 12.7 mph - N/A   Clear
2:53 AM 52.0 °F 39.0 °F 61% 30.14 in 10.0 mi North 10.4 mph - N/A   Clear
3:53 AM 51.1 °F 37.9 °F 61% 30.14 in 10.0 mi North 12.7 mph - N/A   Clear
4:53 AM 51.1 °F 37.0 °F 59% 30.16 in 10.0 mi NNE 10.4 mph - N/A   Clear
5:53 AM 50.0 °F 37.9 °F 63% 30.17 in 10.0 mi NNE 16.1 mph - N/A   Clear
6:53 AM 48.9 °F 37.0 °F 64% 30.18 in 10.0 mi NNE 13.8 mph - N/A   Clear
7:53 AM 48.9 °F 37.0 °F 64% 30.20 in 10.0 mi NNE 15.0 mph - N/A   Clear
8:53 AM 50.0 °F 37.0 °F 61% 30.22 in 10.0 mi NE 13.8 mph - N/A   Clear
9:53 AM 51.1 °F 36.0 °F 56% 30.23 in 10.0 mi NE 13.8 mph - N/A   Clear
10:53 AM 53.1 °F 36.0 °F 52% 30.24 in 10.0 mi ENE 11.5 mph - N/A   Clear
11:53 AM 55.9 °F 36.0 °F 47% 30.23 in 10.0 mi ENE 9.2 mph - N/A   Clear
12:53 PM 60.1 °F 37.0 °F 42% 30.22 in 10.0 mi ENE 8.1 mph - N/A   Clear
1:53 PM 63.0 °F 36.0 °F 37% 30.19 in 10.0 mi Variable 3.5 mph - N/A   Clear
2:53 PM 61.0 °F 37.9 °F 42% 30.17 in 10.0 mi South 6.9 mph - N/A   Clear
3:53 PM 62.1 °F 36.0 °F 38% 30.17 in 10.0 mi North 12.7 mph - N/A   Clear
4:53 PM 60.1 °F 39.0 °F 46% 30.16 in 10.0 mi North 9.2 mph - N/A   Clear
5:53 PM 57.9 °F 41.0 °F 53% 30.16 in 10.0 mi NW 11.5 mph - N/A   Clear
6:53 PM 55.9 °F 43.0 °F 62% 30.18 in 10.0 mi NNW 8.1 mph - N/A   Clear
7:53 PM 55.0 °F 44.1 °F 67% 30.20 in 10.0 mi NNW 8.1 mph - N/A   Clear
8:53 PM 54.0 °F 45.0 °F 72% 30.21 in 10.0 mi North 6.9 mph - N/A   Clear
9:53 PM 54.0 °F 45.0 °F 72% 30.22 in 10.0 mi North 4.6 mph - N/A   Clear
10:53 PM 54.0 °F 45.0 °F 72% 30.22 in 10.0 mi North 3.5 mph - N/A   Clear
11:53 PM 54.0 °F 46.0 °F 75% 30.21 in 10.0 mi North 3.5 mph - N/A   Clear